Location: Newark
(39.9581°N, 97.2014°W)
Time: 11:54:53
(UTC+00:00)

A-11 Canister half - All Passes

Search period start: 17 February 2020 00:00
Search period end: 27 February 2020 00:00
Orbit: 1525 x 1684 km, 47.3° (Epoch: 17 February)

Date Brightness Start Highest point End Pass type
(mag) Time Alt. Az. Time Alt. Az. Time Alt. Az.
17 Feb - 00:36:34 10° WNW 00:45:34 55° SW 00:54:48 10° SSE visible
17 Feb - 02:44:42 10° W 02:49:04 14° WSW 02:53:29 10° SSW visible
17 Feb - 15:54:47 10° SSW 16:02:55 33° SE 16:10:54 10° ENE daylight
17 Feb - 17:57:43 10° WSW 18:07:10 90° NW 18:16:31 10° ENE daylight
17 Feb - 20:03:44 10° W 20:12:52 56° N 20:22:01 10° ENE daylight
17 Feb - 22:09:42 10° WNW 22:18:58 67° NNE 22:28:22 10° ESE daylight
18 Feb - 00:14:55 10° WNW 00:23:58 58° SW 00:33:14 10° SE visible
18 Feb - 02:22:39 10° W 02:27:30 15° SW 02:32:27 10° SSW visible
18 Feb - 15:33:22 10° S 15:41:20 31° SE 15:49:10 10° ENE daylight
18 Feb - 17:36:04 10° WSW 17:45:32 88° SSE 17:54:53 10° ENE daylight
18 Feb - 19:42:01 10° W 19:51:11 57° N 20:00:20 10° ENE daylight
18 Feb - 21:48:02 10° WNW 21:57:18 66° NNE 22:06:39 10° E daylight
18 Feb - 23:53:16 10° WNW 00:02:22 61° SW 00:11:39 10° SE daylight
19 Feb - 02:00:41 10° W 02:05:57 17° SW 02:11:20 10° SSW visible
19 Feb - 15:11:56 10° S 15:19:46 30° SE 15:27:26 10° ENE daylight
19 Feb - 17:14:25 10° SW 17:23:54 85° SSE 17:33:14 10° ENE daylight
19 Feb - 19:20:19 10° W 19:29:30 57° N 19:38:39 10° ENE daylight
19 Feb - 21:26:23 10° WNW 21:35:38 64° NNE 21:44:57 10° E daylight
19 Feb - 23:31:37 10° WNW 23:40:45 63° SW 23:50:04 10° SE daylight
20 Feb - 01:38:44 10° W 01:44:24 18° SW 01:50:09 10° SSW visible
20 Feb - 14:50:32 10° S 14:58:11 28° SE 15:05:42 10° ENE daylight
20 Feb - 16:52:47 10° SW 17:02:16 82° SSE 17:11:36 10° ENE daylight
20 Feb - 18:58:36 10° W 19:07:49 58° N 19:16:58 10° ENE daylight
20 Feb - 21:04:43 10° WNW 21:13:57 63° NNE 21:23:15 10° E daylight
20 Feb - 23:09:58 10° WNW 23:19:08 66° SW 23:28:29 10° SE daylight
21 Feb - 01:16:51 10° W 01:22:50 19° SW 01:28:57 10° SSW visible
21 Feb - 14:29:09 10° S 14:36:38 26° SE 14:43:56 10° ENE daylight
21 Feb - 16:31:09 10° SW 16:40:39 80° SSE 16:49:58 10° ENE daylight
21 Feb - 18:36:53 10° W 18:46:08 59° N 18:55:18 10° ENE daylight
21 Feb - 20:43:03 10° WNW 20:52:17 62° NNE 21:01:32 10° E daylight
21 Feb - 22:48:19 10° WNW 22:57:32 69° SW 23:06:53 10° SE daylight
22 Feb - 00:54:58 10° W 01:01:17 21° SW 01:07:42 10° S visible
22 Feb - 14:07:47 10° S 14:15:03 25° SE 14:22:10 10° ENE daylight
22 Feb - 16:09:30 10° SW 16:19:00 77° SSE 16:28:19 10° ENE daylight
22 Feb - 18:15:10 10° W 18:24:26 59° NNW 18:33:38 10° ENE daylight
22 Feb - 20:21:23 10° WNW 20:30:36 61° NNE 20:39:50 10° E daylight
22 Feb - 22:26:41 10° WNW 22:35:55 72° SW 22:45:16 10° SE daylight
23 Feb - 00:33:09 10° W 00:39:43 22° SW 00:46:25 10° S visible
23 Feb - 13:46:27 10° S 13:53:29 23° SE 14:00:23 10° E daylight
23 Feb - 15:47:52 10° SW 15:57:23 74° SE 16:06:41 10° ENE daylight
23 Feb - 17:53:27 10° W 18:02:46 60° NNW 18:11:57 10° ENE daylight
23 Feb - 19:59:42 10° WNW 20:08:55 60° NNE 20:18:08 10° E daylight
23 Feb - 22:05:02 10° WNW 22:14:18 75° SW 22:23:40 10° SE daylight
24 Feb - 00:11:20 10° W 00:18:10 23° SW 00:25:06 10° S daylight
24 Feb - 13:25:07 10° S 13:31:55 22° SE 13:38:35 10° E daylight
24 Feb - 15:26:16 10° SW 15:35:46 71° SE 15:45:03 10° ENE daylight
24 Feb - 17:31:44 10° W 17:41:05 61° NNW 17:50:17 10° ENE daylight
24 Feb - 19:38:02 10° WNW 19:47:14 59° N 19:56:25 10° E daylight
24 Feb - 21:43:23 10° WNW 21:52:41 77° SSW 22:02:02 10° SE daylight
24 Feb - 23:49:33 10° WNW 23:56:36 25° SW 00:03:46 10° S daylight
25 Feb - 13:03:49 10° S 13:10:21 21° SE 13:16:45 10° E daylight
25 Feb - 15:04:38 10° SW 15:14:08 68° SE 15:23:24 10° ENE daylight
25 Feb - 17:10:01 10° W 17:19:24 62° NNW 17:28:38 10° ENE daylight
25 Feb - 19:16:21 10° WNW 19:25:34 58° N 19:34:43 10° E daylight
25 Feb - 21:21:44 10° WNW 21:31:03 80° SSW 21:40:25 10° SE daylight
25 Feb - 23:27:46 10° WNW 23:35:02 26° SW 23:42:24 10° S daylight
26 Feb - 12:42:33 10° SSE 12:48:47 19° SE 12:54:52 10° E visible
26 Feb - 14:43:01 10° SW 14:52:31 66° SE 15:01:45 10° ENE daylight
26 Feb - 16:48:18 10° W 16:57:43 64° NNW 17:06:58 10° ENE daylight
26 Feb - 18:54:39 10° WNW 19:03:52 58° N 19:13:01 10° E daylight
26 Feb - 21:00:06 10° WNW 21:09:25 83° SSW 21:18:48 10° SE daylight
26 Feb - 23:06:01 10° WNW 23:13:28 28° SW 23:21:02 10° S daylight
